Location: *
(49.6619°S, 177.4603°W)
Time: 12:22:37
(UTC+00:00)

Cosmos 1844 Rocket - Pass Details

Date: 31 January 2023
Orbit: 825 x 843 km, 71.0° (Epoch: 28 March)

Event Time Altitude Azimuth Distance (km) Brightness Sun altitude
Exits shadow 10:36:47 - 316° (NW) 2,833 5.2 -20.3°
Reaches altitude 10° 10:37:48 10° 313° (NW) 2,458 4.9 -20.3°
Maximum altitude 10:43:21 55° 235° (SW) 1,018 3.3 -20.7°
Drops below altitude 10° 10:48:58 10° 157° (SSE) 2,494 5.8 -21.0°
Sets 10:51:31 0° 152° (SSE) 3,437 6.5 -21.1°
